Location: Moscow
(55.7500°N, 37.5830°E)
Time: 05:36:42
(UTC+03:00)

Vanguard 1 - Pass Details

Date: 08 December 2021
Orbit: 652 x 3830 km, 34.2° (Epoch: 21 January)

Event Time Altitude Azimuth Distance (km) Brightness Sun altitude
Rises 22:19:49 0° 208° (SSW) 6,677 14.2 -50.1°
Enters shadow 22:22:53 - 202° (SSW) 6,280 14.0 -50.4°
Reaches altitude 10° 22:24:48 10° 198° (SSW) 6,062 - -50.6°
Maximum altitude 22:40:31 29° 148° (SSE) 5,371 - -52.1°
Drops below altitude 10° 22:57:57 10° 99° (E) 6,784 - -53.6°
Exits shadow 23:03:41 - 91° (E) 7,538 14.4 -54.0°
Sets 23:03:56 0° 90° (E) 7,572 14.4 -54.0°
